Location: Astor
(29.1620°N, 81.5260°W)
Time: 03:43:57
(UTC-05:00)

N. Korean satellite - Visible Passes

Search period start: 17 December 2018 00:00
Search period end: 27 December 2018 00:00
Orbit: 456 x 511 km, 97.2° (Epoch: 16 December)

Date Brightness Start Highest point End Pass type
(mag) Time Alt. Az. Time Alt. Az. Time Alt. Az.
17 Dec 8.4 06:12:30 10° NNE 06:15:53 36° E 06:19:17 10° SSE visible
17 Dec 7.1 18:15:15 10° S 18:18:37 60° W 18:22:01 10° NNW visible
18 Dec 9.8 05:48:51 10° NE 05:51:15 17° E 05:53:39 10° SE visible
19 Dec 9.9 19:01:27 10° WSW 19:02:58 12° W 19:04:31 10° WNW visible
20 Dec 6.8 06:31:55 10° NNE 06:35:35 76° ESE 06:39:15 10° S visible
20 Dec 8.7 18:35:18 10° SSW 18:38:18 28° W 18:41:18 10° NW visible
21 Dec 8.7 06:07:41 10° NE 06:10:59 31° E 06:14:18 10° SSE visible
21 Dec 6.7 18:10:17 10° S 18:13:41 73° W 18:17:07 10° NNW visible
22 Dec 9.9 05:44:14 10° ENE 05:46:19 14° E 05:48:25 10° SE visible
23 Dec 6.8 06:51:37 10° N 06:55:12 52° WNW 06:58:49 10° SSW visible
23 Dec 9.8 18:56:01 10° SW 18:58:00 15° W 19:00:00 10° WNW visible
24 Dec 7.2 06:27:00 10° NNE 06:30:39 64° E 06:34:20 10° S visible
24 Dec 8.4 18:30:12 10° SSW 18:33:18 33° W 18:36:28 10° NNW visible
25 Dec 9.0 06:02:51 10° NE 06:06:03 27° E 06:09:15 10° SSE visible
25 Dec 6.5 18:05:17 10° S 18:08:43 87° W 18:12:09 10° NNW visible
26 Dec 10.0 05:39:41 10° ENE 05:41:22 13° E 05:43:02 10° ESE visible
